ONEWEB-0595

operational
NORAD ID: 54661 Int'l Des: 2022-166 Owner: ONEWEBN Country: UK Constellation: oneweb
LEOCIRCULARPOLARONEWEB_TYPE

关于 ONEWEB-0595

正在加载描述...

实时位置

正在加载3D地球...

即将过境

高度历史

Altitude vs Time

uPlot chart will show altitude changes over time

两行轨道根数

1 54661U 22166V 25251.89297902 .00000039 00000-0 62589-4 0 9996
2 54661 87.9217 300.1088 0001889 100.5874 259.5473 13.21823101134374
Epoch: Sep 8, 2025 • Age: 13 hours

当前状态

高度 1190.0 km
速度 7.27 km/s
星下点 82.50°N, 168.71°E
发射日期 Dec 8, 2022
运行时间 2.7 years
类型 internet

技术详情

分类 Payload
质量 148.00 kg
干质量 140.00 kg
总质量 148.00 kg
长度 1.30 m
直径 1.00 m
跨度 5.00 m
形状 Trapezoid+2 pan
制造商 ONEWUS
平台类型 ARROW
阶段状态 In Orbit
所有者/国家 ONEWEBN/UK

大型星座

Loading constellations...